2019-089F (44857 NORAD) Tracking and Keplerian Element Data

This shows tracking and keplerian element data for the satellite.

Feedback or suggestion? Click here.




ElementValue
Catalog44857
Name2019-089F
Epoch Orbit564
Epoch Day18.18711843
Epoch Year2020
RAAN272.6572
Inclination36.9665
Eccentricity0.0007094
Argument of Perigee239.4272
Mean Anonmoly120.5769
Mean Motion14.97678034
Decay Rate1.6E-06
L11 44857U 19089F 20018.18711843 .00000160 00000-0 19986-4 0 9993
L22 44857 36.9665 272.6572 0007094 239.4272 120.5769 14.97678034 5649

Live tracking and technical data element details for 2019-089F (NORAD 44857). 2019-089F can be tracked NOW for your location showing map with azimuth and elevation plus other details from your city location.

Track the satellite on the map from your city or location and see movement details for azimuth, elevation, latitude, longitude, range, height, and movement on the map or in text.







IsCatalogInMostPopularTable: catalog: 44857, numindb: 8
Update: records affected: 1



GetName: 44857 2019-089F

Hit Count: updated at: Mon, 20 Jan 2020 03:23:39 GMT